Change the Weather History Date:

Tuesday, July 2, 2013

  Actual Average Record
Temperature  
Mean Temperature 73 °F 62 °F  
Max Temperature 91 °F 77 °F 102 °F (1908)
Min Temperature 55 °F 48 °F 34 °F (1915)
Degree Days  
Heating Degree Days 0 4  
Month to date heating degree days 0 8  
Since 1 June heating degree days 220 235  
Since 1 July heating degree days 0 8  
Cooling Degree Days 8 2  
Month to date cooling degree days 13 4  
Year to date cooling degree days 32 26  
Since 1 June cooling degree days 29 24  
Growing Degree Days 22 (Base 50)    
Moisture  
Dew Point 54 °F    
Average Humidity 57    
Maximum Humidity 86    
Minimum Humidity 27    
Precipitation  
Precipitation 0.00 in 0.08 in 1.80 in (1903)
Month to date precipitation 0.00 0.15  
Year to date precipitation 14.19 9.49  
Snow  
Snow 0.00 in - - ()
Snow Depth 0.00 in    
Sea Level Pressure  
Sea Level Pressure 30.01 in    
Wind  
Wind Speed 5 mph (ESE)    
Max Wind Speed 10 mph    
Max Gust Speed 13 mph    
Visibility 10 miles    
Events      
T = Trace of Precipitation, MM = Missing Value Source: NWS Daily Summary

Daily Weather History Graph

Daily Weather History Graph

Search for Another Location

Airport or City:

Trip Planner

Search our weather history database for the weather conditions in past years. The results will help you decide how hot, cold, wet, or windy it might be!

Date:

Astronomy

Jul. 02, 2013 Rise Set
Actual Time 5:27 AM MDT 9:16 PM MDT
Civil Twilight 4:47 AM MDT 9:55 PM MDT
Nautical Twilight 3:54 AM MDT 10:49 PM MDT
Astronomical Twilight 2:35 AM MDT 12:07 AM MDT
Moon 1:43 AM MDT (7/2) 4:24 PM MDT (7/2)
Length of Visible Light 17h 07m
Length of Day
15h 48m
Waning Crescent, 26% of the Moon is Illuminated
Jul 2
Waning Crescent
Jul 8
New
Jul 15
First Quarter
Jul 22
Full
Jul 29
Last Quarter

Hourly Weather History & Observations

Time (MDT) Temp. Heat Index Dew Point Humidity Pressure Visibility Wind Dir Wind Speed Gust Speed Precip Events Conditions
12:54 AM 61.0 °F - 54.0 °F 78% 30.11 in 10.0 mi ESE 8.1 mph - N/A   Clear
1:54 AM 60.1 °F - 54.0 °F 80% 30.10 in 10.0 mi ESE 9.2 mph - N/A   Clear
2:54 AM 59.0 °F - 53.1 °F 81% 30.10 in 10.0 mi SSW 6.9 mph - N/A   Clear
3:54 AM 59.0 °F - 52.0 °F 78% 30.09 in 10.0 mi SSE 4.6 mph - N/A   Clear
4:54 AM 55.9 °F - 51.1 °F 84% 30.09 in 10.0 mi SE 5.8 mph - N/A   Clear
5:54 AM 55.9 °F - 51.1 °F 84% 30.11 in 10.0 mi SSE 6.9 mph - N/A   Clear
6:54 AM 60.1 °F - 54.0 °F 80% 30.09 in 10.0 mi ESE 4.6 mph - N/A   Clear
8:54 AM 73.9 °F - 55.9 °F 53% 30.06 in 10.0 mi ESE 5.8 mph - N/A   Clear
9:54 AM 79.0 °F - 55.9 °F 45% 30.05 in 10.0 mi East 5.8 mph - N/A   Clear
10:54 AM 82.9 °F 81.8 °F 53.1 °F 36% 30.04 in 10.0 mi Calm Calm - N/A   Clear
11:54 AM 84.9 °F 83.3 °F 54.0 °F 34% 30.04 in 10.0 mi Variable 3.5 mph - N/A   Clear
12:54 PM 86.0 °F 84.2 °F 54.0 °F 33% 30.02 in 10.0 mi Variable 3.5 mph - N/A   Clear
1:54 PM 87.1 °F 85.7 °F 55.9 °F 35% 30.01 in 10.0 mi Calm Calm - N/A   Clear
2:54 PM 88.0 °F 85.7 °F 53.1 °F 30% 30.00 in 10.0 mi Variable 3.5 mph - N/A   Clear
3:54 PM 89.1 °F - 51.1 °F 27% 29.98 in 10.0 mi Calm Calm - N/A   Clear
4:54 PM 90.0 °F 87.5 °F 53.1 °F 28% 29.97 in 10.0 mi North 3.5 mph - N/A   Clear
5:54 PM 90.0 °F 87.5 °F 53.1 °F 28% 29.95 in 10.0 mi North 3.5 mph - N/A   Clear
6:54 PM 90.0 °F 87.7 °F 54.0 °F 29% 29.93 in 10.0 mi Calm Calm - N/A   Clear
7:54 PM 84.0 °F 82.9 °F 55.0 °F 37% 29.91 in 10.0 mi SE 3.5 mph - N/A   Clear
8:54 PM 78.1 °F - 55.9 °F 46% 29.89 in 10.0 mi ESE 3.5 mph - N/A   Clear
9:54 PM 69.1 °F - 55.9 °F 63% 29.90 in 10.0 mi SE 5.8 mph - N/A   Clear
10:54 PM 64.9 °F - 55.9 °F 73% 29.88 in 10.0 mi ESE 8.1 mph - N/A   Clear
11:54 PM 64.0 °F - 54.0 °F 70% 29.86 in 10.0 mi ESE 8.1 mph - N/A   Clear